loading
|

STARLINK-32159, 60293

Orbit data source: Space-Track

STARLINK-32159, 60293 is a payload satellite owned by SpaceX/Seattle (US) in LEO that was launched on Sun, 28 Jul 2024 UTC via an FALCON 9 launch vehicle from the Air Force Eastern Test Range (AFETR). Payloads include a variety of satellites, spacecraft, and rockets equipped with specific instruments for various scientific and technological missions. These include communications satellites like Starlink; space stations such as the ISS; scientific satellites like the Hubble; Earth observation satellites from companies like Planet Labs, Umbra, and HawkEye 360; GPS; miniature CubeSats for education and research; and military/defense satellites.

Loading next visibility...
Loading greatness...
STARLINK-32159 details
Identifier
60293, 2024-132R
Orbit
LEO
Last TLE update8 hours ago
Origin
Flag of USSpaceX/Seattle (US)
ManufacturerSpaceX/Seattle
Mission statusOperational
MissionUnknown
Bus & MotorSTARLINK V2M, Unknown motor
Mass750 kg wet, ~700 kg dry
Launch date (UTC)
2024-07-28 (2 months ago)
Launch vehicle
FALCON 9
Launch site
Air Force Eastern Test Range (AFETR)
Object type
Payload
Rocket body
Debris
Radar Cross SectionLarge (>1 m²)

Expand to show TLE details & history

TLE from 8 hours ago
0 STARLINK-32159
1 60293U 24132R   24261.59836312  .00050464  00000-0  12611-2 0  9996
2 60293  53.1591  31.9973 0001332  53.6169 306.4959 15.39671657  9170
Epoch: 2024-09-17T14:21Z
Definitive object data (Epoch: 2024-09-17T14:21:38.573Z)
Latitude0.00001°
Longitude179.57586°
Altitude447.442 km
Speed7.645 km/s
True Right ascension02h 07m 59s
True Declination0° 00' 00"
Sunlit
Object was in full shadow at TLE epoch
Predictive object data (real-time)
Latitude47.03934°
Longitude-55.18802°
Altitude451.661 km
Speed7.648 km/s
Apparent Right ascension06h 50m 48s
Apparent Declination8° 51' 45"
Sunlit
Object is in daylight
Predictive observer data (real-time)
Local Sidereal Time15:27:33
Azimuth304.111° NW
Elevation-22.331°
Doppler factor1
Orbital elements
Apogee448.246 km
Perigee446.428 km
Semi-major axis6,825.474 km
Eccentricity0.0001332
Inclination53.1591°
RAAN31.9973°
Arg. of periapsis53.6169°
True anomaly306.48363°
Mean anomaly306.4959°
Eccentric anomaly306.48976°
Mean motion3.84896 °/min
BSTAR0.0012611
Period93.53 mins
No data available

STARLINK-32159 Visibility forecast

Observer location: 39.9160978°, -105.1181434

STARLINK-32159 is not visible in the next 10 days
Span
Click to sort rows by Start time (UTC) header in descending order
Start Az.
Max El. time (UTC)
Max El. Az.
Max El.
End time (UTC)
End Az.